Location: Torch Lake Township
(45.0753°N, 85.3586°W)
Time: 12:44:43
(UTC-05:00)

Amateur Radio Satellites - All Passes

Search period start: 22 November 2014 12:14
Search period end: 23 November 2014 12:14
Location: Torch Lake Township, 45.0753°N, 85.3586°W

Satellite Date Start Highest point End Downlink Frequencies (MHz)
Time Altitude Azimuth
GONETS M04 22 Nov 12:16:49 12:20:25 13° 310° (NW) 12:24:02
HUMSAT D 22 Nov 12:17:32 12:21:04 28° 292° (WNW) 12:24:37 437.325/437.525
ITAMSAT 1 22 Nov 12:30:04 12:32:58 15° 57° (ENE) 12:35:52 435.822/435.867
50 SAT 22 Nov 12:34:16 12:37:22 22° 294° (WNW) 12:40:29 437.505
YUBILEINY 22 Nov 12:35:22 12:40:53 18° 56° (NE) 12:46:21 435.215
SHINDAISAT 22 Nov 12:36:28 12:37:40 15° 313° (NW) 12:38:53 437.305
Gurwin Techsat 1B 22 Nov 12:40:05 12:41:21 11° 53° (NE) 12:42:36 435.225
FUNcube-1 22 Nov 12:41:01 12:42:34 12° 300° (WNW) 12:44:08 145.935
CUBEBUG 1 22 Nov 12:41:32 12:45:41 42° 290° (WNW) 12:49:47 437.445
SO-50 22 Nov 12:42:07 12:46:21 29° 41° (NE) 12:50:36 436.795
SPROUT 22 Nov 12:46:01 12:50:13 52° 100° (E) 12:54:23 437.525
TISAT 1 22 Nov 12:49:07 12:53:20 64° 102° (ESE) 12:57:29 437.305
ESTCUBE 1 22 Nov 13:10:13 13:13:51 24° 295° (WNW) 13:17:28 437.505/2401.250
AUBIESAT-1 22 Nov 13:12:34 13:16:29 23° 98° (E) 13:20:21 437.475
M-CUBED/EXP-1 PRIME 22 Nov 13:14:42 13:18:51 27° 99° (E) 13:22:57 437.505
ITUPSAT 1 22 Nov 13:19:02 13:22:40 21° 93° (E) 13:26:16 437.325
Oscar 19 22 Nov 13:22:39 13:27:46 87° 255° (WSW) 13:32:55 437.125/150
SWISSCUBE 22 Nov 13:31:13 13:35:26 30° 96° (E) 13:39:37 437.505
AO-7 22 Nov 13:45:58 13:51:26 20° 46° (NE) 13:56:56 29.400- 29.500
KKS-1 22 Nov 14:00:27 14:01:42 11° 88° (E) 14:02:56 437.445
BEESAT 22 Nov 14:02:53 14:07:37 56° 101° (E) 14:12:19 436.000
ITAMSAT 1 22 Nov 14:06:31 14:11:45 86° 255° (WSW) 14:17:01 435.822/435.867
HORYU 2 22 Nov 14:13:49 14:17:35 28° 66° (ENE) 14:21:22 437.375
Gurwin Techsat 1B 22 Nov 14:15:03 14:20:19 67° 72° (ENE) 14:25:36 435.225
CUSAT 1 22 Nov 14:17:52 14:20:41 60° 282° (WNW) 14:23:16 437.405
SO-50 22 Nov 14:22:26 14:27:08 50° 240° (WSW) 14:31:52 436.795
SPROUT 22 Nov 14:23:09 14:25:55 17° 297° (WNW) 14:28:41 437.525
DANDE 22 Nov 14:25:53 14:28:49 59° 281° (WNW) 14:31:26 436.750
TISAT 1 22 Nov 14:26:28 14:28:40 14° 299° (WNW) 14:30:52 437.305
YUBILEINY 22 Nov 14:30:37 14:39:24 76° 80° (E) 14:48:04 435.215
AUBIESAT-1 22 Nov 14:46:56 14:51:39 49° 295° (WNW) 14:56:21 437.475
M-CUBED/EXP-1 PRIME 22 Nov 14:49:20 14:53:59 43° 296° (WNW) 14:58:37 437.505
ITUPSAT 1 22 Nov 14:56:11 15:00:49 47° 290° (WNW) 15:05:24 437.325
STARS 22 Nov 15:02:30 15:06:30 33° 97° (E) 15:10:28 437.465
JAS-2 22 Nov 15:03:31 15:08:07 17° 50° (NE) 15:12:47 435.910
Oscar 19 22 Nov 15:06:23 15:07:51 11° 273° (W) 15:09:19 437.125/150
SWISSCUBE 22 Nov 15:09:00 15:13:18 34° 293° (WNW) 15:17:35 437.505
KKS-1 22 Nov 15:34:27 15:38:54 78° 285° (WNW) 15:43:20 437.445
AO-7 22 Nov 15:34:39 15:42:52 73° 67° (ENE) 15:51:10 29.400- 29.500
BEESAT 22 Nov 15:41:40 15:45:03 20° 298° (WNW) 15:48:26 436.000
HORYU 2 22 Nov 15:50:16 15:54:12 31° 264° (W) 15:58:09 437.375
O/OREOS (USA 219) 22 Nov 15:50:18 15:53:47 22° 53° (NE) 15:57:16 437.305
ITAMSAT 1 22 Nov 15:50:24 15:52:00 11° 273° (W) 15:53:37 435.822/435.867
Gurwin Techsat 1B 22 Nov 15:57:18 16:00:46 18° 270° (W) 16:04:15 435.225
PHONESAT 2.4 22 Nov 16:16:20 16:17:14 11° 149° (SSE) 16:18:07 2401.200-2431.200
Cubesat XI-IV 22 Nov 16:18:46 16:20:44 12° 54° (NE) 16:22:42 437.490
MaSat-1 22 Nov 16:26:41 16:29:37 44° 115° (ESE) 16:32:19 437.345
RS-15 22 Nov 16:28:12 16:38:03 41° 109° (ESE) 16:47:51 29.354- 29.394
YUBILEINY 22 Nov 16:28:41 16:35:15 25° 281° (W) 16:41:47 435.215
STARS 22 Nov 16:39:14 16:42:52 26° 294° (WNW) 16:46:29 437.465
VERMONT LUNAR 22 Nov 16:41:27 16:44:02 18° 156° (SSE) 16:46:37 437.305
JAS-2 22 Nov 16:44:14 16:51:43 67° 70° (ENE) 16:59:31 435.910
CUTE-I 22 Nov 16:58:30 17:02:46 25° 62° (ENE) 17:07:03 437.470
O/OREOS (USA 219) 22 Nov 17:29:09 17:33:26 46° 252° (WSW) 17:37:41 437.305
AO-7 22 Nov 17:29:40 17:36:22 27° 267° (W) 17:43:08 29.400- 29.500
MOZHAYETS 4 22 Nov 17:47:28 17:52:10 78° 103° (ESE) 17:56:49
PHONESAT 2.4 22 Nov 17:52:04 17:55:20 29° 165° (SSE) 17:58:36 2401.200-2431.200
Cubesat XI-IV 22 Nov 17:54:33 17:59:54 73° 73° (ENE) 18:05:16 437.490
MaSat-1 22 Nov 18:03:55 18:04:27 10° 309° (NW) 18:04:58 437.345
STRAND 1 22 Nov 18:18:04 18:20:29 13° 88° (E) 18:22:54 437.568
VERMONT LUNAR 22 Nov 18:18:38 18:22:01 37° 173° (S) 18:25:25 437.305
HO-68 22 Nov 18:22:02 18:24:57 13° 45° (NE) 18:27:51 435.675
GONETS M04 22 Nov 18:24:33 18:30:39 20° 58° (ENE) 18:36:42
JAS-2 22 Nov 18:30:52 18:37:14 29° 270° (W) 18:43:52 435.910
CUTE-I 22 Nov 18:37:19 18:42:32 51° 260° (W) 18:47:46 437.470
RS-15 22 Nov 18:38:58 18:49:49 65° 313° (NW) 19:00:48 29.354- 29.394
PRISM 22 Nov 18:47:07 18:51:22 64° 102° (ESE) 18:55:33 437.425
CUBESAT XI-V 22 Nov 19:17:59 19:22:34 51° 99° (E) 19:27:06 437.345
MOZHAYETS 4 22 Nov 19:26:25 19:28:46 14° 300° (WNW) 19:31:07
PHONESAT 2.4 22 Nov 19:30:14 19:33:45 41° 182° (S) 19:37:16 2401.200-2431.200
Cubesat XI-IV 22 Nov 19:37:15 19:40:32 16° 270° (W) 19:43:50 437.490
AIST 1 22 Nov 19:38:14 19:40:57 16° 85° (E) 19:43:41
CANX-2 22 Nov 19:43:48 19:46:52 20° 65° (ENE) 19:49:58 2200.000
AAUSAT CUBESAT 2 22 Nov 19:46:55 19:48:56 13° 61° (ENE) 19:50:58 437.432
STRAND 1 22 Nov 19:55:10 20:00:19 81° 286° (WNW) 20:05:24 437.568
GOMX 1 22 Nov 19:55:45 19:59:13 20° 65° (ENE) 20:02:33 467.674
VERMONT LUNAR 22 Nov 19:56:50 20:00:10 35° 190° (S) 20:03:31 437.305
COMPASS 1 22 Nov 19:58:25 20:01:24 19° 65° (ENE) 20:04:25 437.405
BRITE-PL 22 Nov 20:04:05 20:08:35 33° 69° (ENE) 20:12:47 437.365/2234.400
HO-68 22 Nov 20:04:10 20:11:07 55° 66° (ENE) 20:18:06 435.675
DELFI C3 22 Nov 20:12:16 20:13:13 11° 60° (ENE) 20:14:10 145.870
SHINDAISAT 22 Nov 20:15:17 20:17:02 50° 237° (WSW) 20:18:46 437.305
CUTE 1.7 & AOD 2 22 Nov 20:17:56 20:21:52 40° 71° (ENE) 20:25:50 437.475
GONETS M04 22 Nov 20:20:06 20:29:01 83° 81° (E) 20:37:49
PRISM 22 Nov 20:24:07 20:26:25 14° 299° (WNW) 20:28:43 437.425
UKube-1 22 Nov 20:28:56 20:32:05 20° 63° (ENE) 20:35:14 .
CINEMA 3 22 Nov 20:34:56 20:38:17 22° 66° (ENE) 20:41:33 145.822/145.860
CUBEBUG 2 22 Nov 20:35:20 20:37:34 14° 62° (ENE) 20:39:47 437.445
Oscar 11 22 Nov 20:42:32 20:46:08 27° 67° (ENE) 20:49:46 145.826/435.025
UWE-3 22 Nov 20:43:17 20:45:38 15° 62° (ENE) 20:47:59 435.000/436.395/437.385
BEESAT 3 22 Nov 20:52:58 20:55:56 20° 112° (ESE) 20:58:57 437.485
PCSat 22 Nov 20:54:37 20:59:52 55° 116° (ESE) 21:05:11 145.827
SEEDS 22 Nov 20:55:29 20:59:40 89° 76° (ENE) 21:03:54 437.485
RS-15 22 Nov 20:55:31 21:04:47 30° 343° (NNW) 21:14:15 29.354- 29.394
CUBESAT XI-V 22 Nov 20:56:17 20:59:39 20° 297° (WNW) 21:02:59 437.345
DX 1 22 Nov 20:59:35 21:03:40 39° 69° (ENE) 21:07:46 434.975-435.025
BEESAT 2 22 Nov 21:04:56 21:08:14 23° 114° (ESE) 21:11:35 435.950
DOVE 4 22 Nov 21:07:19 21:12:00 73° 75° (ENE) 21:16:26 437.250
PHONESAT 2.4 22 Nov 21:09:01 21:12:08 25° 198° (SSW) 21:15:15 2401.200-2431.200
AIST 1 22 Nov 21:13:56 21:18:11 49° 283° (WNW) 21:22:30
VELOX 1 22 Nov 21:14:03 21:17:15 20° 63° (ENE) 21:20:27 145.980
CANX-2 22 Nov 21:18:34 21:22:33 41° 262° (W) 21:26:34 2200.000
AAUSAT CUBESAT 2 22 Nov 21:19:59 21:24:06 65° 259° (W) 21:28:16 437.432
AIST 2 22 Nov 21:23:16 21:26:16 19° 112° (ESE) 21:29:18 435.215
ZACube-1 22 Nov 21:25:04 21:28:51 32° 69° (ENE) 21:32:35 437.345
GOMX 1 22 Nov 21:32:20 21:37:05 50° 260° (W) 21:41:33 467.674
COMPASS 1 22 Nov 21:32:56 21:36:52 41° 262° (W) 21:40:52 437.405
VERMONT LUNAR 22 Nov 21:35:51 21:38:06 16° 206° (SSW) 21:40:21 437.305
HUMSAT D 22 Nov 21:36:25 21:39:53 27° 67° (ENE) 21:43:21 437.325/437.525
STRAND 1 22 Nov 21:36:35 21:38:40 13° 305° (NW) 21:40:46 437.568
AISAT 22 Nov 21:37:01 21:41:00 32° 68° (ENE) 21:44:59 437.250
BRITE-PL 22 Nov 21:42:31 21:47:04 32° 264° (W) 21:51:20 437.365/2234.400
DELFI C3 22 Nov 21:43:50 21:47:54 81° 257° (WSW) 21:52:01 145.870
50 SAT 22 Nov 21:49:45 21:53:17 30° 69° (ENE) 21:56:50 437.505
HO-68 22 Nov 21:52:50 21:59:07 32° 265° (W) 22:05:27 435.675
CUTE 1.7 & AOD 2 22 Nov 21:54:55 21:57:59 19° 268° (W) 22:01:04 437.475
FUNcube-1 22 Nov 22:00:39 22:04:53 77° 75° (ENE) 22:09:04 145.935
UKube-1 22 Nov 22:03:45 22:07:56 46° 260° (W) 22:12:09 .
CUBEBUG 1 22 Nov 22:04:21 22:07:50 23° 65° (ENE) 22:11:19 437.445
CUBEBUG 2 22 Nov 22:09:33 22:13:50 63° 259° (W) 22:18:01 437.445
CINEMA 3 22 Nov 22:11:07 22:15:18 39° 262° (W) 22:19:21 145.822/145.860
UWE-3 22 Nov 22:17:33 22:21:46 59° 259° (W) 22:25:56 435.000/436.395/437.385
GONETS M04 22 Nov 22:18:24 22:24:44 23° 282° (WNW) 22:31:03
Oscar 11 22 Nov 22:18:25 22:22:14 31° 264° (W) 22:26:04 145.826/435.025
ANTELSAT 22 Nov 22:24:31 22:27:27 17° 92° (E) 22:30:24 437.575/2403.000
QB50P1 22 Nov 22:28:52 22:30:36 12° 89° (E) 22:32:20 145.935-145.965
BEESAT 3 22 Nov 22:29:51 22:33:51 48° 310° (NW) 22:37:55 437.485
ESTCUBE 1 22 Nov 22:34:36 22:38:57 46° 71° (ENE) 22:43:20 437.505/2401.250
DX 1 22 Nov 22:36:40 22:40:03 22° 266° (W) 22:43:27 434.975-435.025
PCSat 22 Nov 22:38:58 22:43:37 28° 316° (NW) 22:48:17 145.827
BEESAT 2 22 Nov 22:42:24 22:46:19 41° 312° (NW) 22:50:19 435.950
DOVE 4 22 Nov 22:48:17 22:50:12 12° 270° (W) 22:52:05 437.250
VELOX 1 22 Nov 22:49:10 22:53:30 49° 260° (W) 22:57:52 145.980
POPSAT HIP 1 22 Nov 22:51:54 22:55:11 22° 94° (E) 22:58:27 437.405
BUGSAT 1 22 Nov 22:57:41 23:00:45 20° 93° (E) 23:03:47 437.445
AIST 2 22 Nov 23:00:23 23:04:32 52° 310° (NW) 23:08:46 435.215
ZACube-1 22 Nov 23:01:51 23:05:17 24° 266° (W) 23:08:42 437.345
HUMSAT D 22 Nov 23:12:03 23:15:39 28° 264° (W) 23:19:15 437.325/437.525
RS-15 22 Nov 23:12:08 23:21:35 31° 18° (NNE) 23:31:18 29.354- 29.394
AISAT 22 Nov 23:13:48 23:17:39 28° 265° (W) 23:21:30 437.250
TIGRISAT 22 Nov 23:20:14 23:24:35 62° 101° (ESE) 23:29:00 435.000
POLYITAN 1 22 Nov 23:22:37 23:26:42 46° 99° (E) 23:30:46 437.675
50 SAT 22 Nov 23:25:21 23:28:38 24° 265° (W) 23:31:56 437.505
QB50P2 22 Nov 23:26:06 23:30:15 51° 100° (E) 23:34:21 145.880/145.840
UNISAT 6 22 Nov 23:31:48 23:36:13 84° 103° (ESE) 23:40:43 437.425
DUCHIFAT 1 22 Nov 23:34:32 23:38:44 62° 101° (E) 23:42:53 145.980
BEESAT 22 Nov 23:37:40 23:39:08 11° 56° (NE) 23:40:36 436.000
CUBEBUG 1 22 Nov 23:39:49 23:44:00 39° 262° (W) 23:48:12 437.445
SPROUT 22 Nov 23:42:12 23:46:24 52° 72° (ENE) 23:50:37 437.525
TISAT 1 22 Nov 23:43:38 23:47:51 63° 73° (ENE) 23:52:06 437.305
NANOSAT C BR1 22 Nov 23:53:19 23:57:34 82° 285° (WNW) 00:01:46 145.865
ANTELSAT 23 Nov 00:00:16 00:04:32 50° 288° (WNW) 00:08:52 437.575/2403.000
QB50P1 23 Nov 00:02:45 00:06:57 65° 286° (WNW) 00:11:07 145.935-145.965
AUBIESAT-1 23 Nov 00:04:01 00:07:43 36° 62° (ENE) 00:11:44 437.475
M-CUBED/EXP-1 PRIME 23 Nov 00:06:35 00:10:21 41° 64° (ENE) 00:14:29 437.505
BEESAT 3 23 Nov 00:12:11 00:13:07 11° 332° (NNW) 00:14:03 437.485
ESTCUBE 1 23 Nov 00:12:47 00:16:04 20° 268° (W) 00:19:23 437.505/2401.250
ISS 23 Nov 00:25:58 00:27:42 14° 133° (SE) 00:29:26 145.825
POPSAT HIP 1 23 Nov 00:27:20 00:31:12 36° 291° (WNW) 00:35:03 437.405
ITUPSAT 1 23 Nov 00:27:49 00:32:02 31° 66° (ENE) 00:36:15 437.325
BUGSAT 1 23 Nov 00:32:37 00:36:24 36° 291° (WNW) 00:40:08 437.445
SWISSCUBE 23 Nov 00:39:48 00:44:20 43° 69° (ENE) 00:48:54 437.505
AIST 2 23 Nov 00:42:40 00:44:11 12° 331° (NNW) 00:45:42 435.215
CUSAT 1 23 Nov 00:52:06 00:56:14 87° 260° (W) 01:01:52 437.405
TIGRISAT 23 Nov 00:58:22 01:00:54 15° 298° (WNW) 01:03:27 435.000
POLYITAN 1 23 Nov 00:59:26 01:02:20 18° 297° (WNW) 01:05:14 437.675
KKS-1 23 Nov 01:00:29 01:02:58 15° 60° (ENE) 01:05:27 437.445
DANDE 23 Nov 01:02:23 01:06:21 82° 260° (W) 01:11:47 436.750
QB50P2 23 Nov 01:03:04 01:05:48 17° 297° (WNW) 01:08:32 145.880/145.840
UNISAT 6 23 Nov 01:10:47 01:12:25 12° 301° (WNW) 01:14:04 437.425
BEESAT 23 Nov 01:11:23 01:16:10 80° 74° (ENE) 01:21:00 436.000
DUCHIFAT 1 23 Nov 01:11:51 01:14:08 14° 299° (WNW) 01:16:23 145.980
SPROUT 23 Nov 01:20:08 01:22:48 16° 269° (W) 01:25:29 437.525
TISAT 1 23 Nov 01:22:07 01:24:07 13° 270° (W) 01:26:07 437.305
RS-15 23 Nov 01:25:22 01:36:31 67° 48° (NE) 01:48:06 29.354- 29.394
Oscar 19 23 Nov 01:32:36 01:37:02 28° 95° (E) 01:41:27 437.125/150
AUBIESAT-1 23 Nov 01:39:40 01:42:51 23° 262° (W) 01:46:18 437.475
YUBILEINY 23 Nov 01:41:35 01:46:47 17° 75° (ENE) 01:51:57 435.215
M-CUBED/EXP-1 PRIME 23 Nov 01:42:43 01:45:40 20° 264° (W) 01:48:49 437.505
ISS 23 Nov 02:00:37 02:03:55 90° 147° (SSE) 02:07:13 145.825
STARS 23 Nov 02:01:43 02:05:49 39° 69° (ENE) 02:09:55 437.465
MaSat-1 23 Nov 02:04:09 02:06:21 39° 246° (WSW) 02:08:35 437.345
ITUPSAT 1 23 Nov 02:05:33 02:09:52 33° 264° (W) 02:14:13 437.325
ITAMSAT 1 23 Nov 02:17:52 02:22:21 29° 95° (E) 02:26:48 435.822/435.867
SWISSCUBE 23 Nov 02:18:35 02:22:23 23° 267° (W) 02:26:12 437.505
Gurwin Techsat 1B 23 Nov 02:29:57 02:34:05 23° 92° (E) 02:38:12 435.225
KKS-1 23 Nov 02:34:39 02:39:06 67° 258° (WSW) 02:43:33 437.445
BEESAT 23 Nov 02:52:40 02:54:37 12° 272° (W) 02:56:34 436.000
Oscar 19 23 Nov 03:11:41 03:16:28 40° 292° (WNW) 03:21:14 437.125/150
MOZHAYETS 4 23 Nov 03:17:48 03:19:28 12° 58° (ENE) 03:21:09
YUBILEINY 23 Nov 03:33:19 03:42:08 81° 96° (E) 03:50:56 435.215
AO-7 23 Nov 03:35:16 03:41:04 20° 90° (E) 03:46:51 29.400- 29.500
ISS 23 Nov 03:37:56 03:40:52 29° 349° (N) 03:43:48 145.825
RS-15 23 Nov 03:38:15 03:48:22 41° 251° (WSW) 03:58:54 29.354- 29.394
STARS 23 Nov 03:39:00 03:42:26 22° 266° (W) 03:45:53 437.465
HORYU 2 23 Nov 03:39:21 03:43:37 42° 99° (E) 03:47:53 437.375
ITAMSAT 1 23 Nov 03:57:08 04:01:56 39° 293° (WNW) 04:06:41 435.822/435.867
PCSat 23 Nov 03:58:06 04:01:28 16° 34° (NE) 04:04:49 145.827
Gurwin Techsat 1B 23 Nov 04:09:12 04:14:21 52° 290° (WNW) 04:19:28 435.225
SO-50 23 Nov 04:39:17 04:43:19 33° 116° (ESE) 04:47:28 436.795
MOZHAYETS 4 23 Nov 04:51:23 04:55:58 90° 208° (SSW) 05:00:38
BEESAT 3 23 Nov 05:10:08 05:13:46 27° 43° (NE) 05:17:22 437.485
ISS 23 Nov 05:15:15 05:18:09 28° 9° (N) 05:21:04 145.825
HORYU 2 23 Nov 05:16:37 05:20:03 22° 296° (WNW) 05:23:29 437.375
BEESAT 2 23 Nov 05:22:43 05:26:32 32° 45° (NE) 05:30:18 435.950
AO-7 23 Nov 05:26:30 05:34:55 89° 109° (ESE) 05:43:18 29.400- 29.500
YUBILEINY 23 Nov 05:33:08 05:40:00 25° 298° (WNW) 05:46:55 435.215
STRAND 1 23 Nov 05:35:12 05:39:22 26° 63° (ENE) 05:43:33 437.568
JAS-2 23 Nov 05:37:45 05:44:52 51° 97° (E) 05:51:09 435.910
PRISM 23 Nov 05:39:52 05:44:00 62° 73° (ENE) 05:48:12 437.425
PCSat 23 Nov 05:40:29 05:45:55 68° 56° (NE) 05:51:19 145.827
AIST 2 23 Nov 05:42:23 05:46:07 28° 43° (NE) 05:49:49 435.215
O/OREOS (USA 219) 23 Nov 06:06:00 06:08:36 15° 99° (E) 06:11:12 437.305
Cubesat XI-IV 23 Nov 06:10:32 06:14:51 24° 93° (E) 06:19:07 437.490
SO-50 23 Nov 06:19:36 06:23:49 36° 315° (NW) 06:28:10 436.795
CUBESAT XI-V 23 Nov 06:23:15 06:27:55 63° 73° (ENE) 06:32:36 437.345
BEESAT 3 23 Nov 06:48:11 06:52:07 39° 242° (WSW) 06:55:59 437.485
ISS 23 Nov 06:51:51 06:55:09 80° 29° (NNE) 06:58:28 145.825
CUTE-I 23 Nov 06:52:18 06:57:33 55° 101° (E) 07:02:44 437.470
BEESAT 2 23 Nov 07:01:03 07:04:49 32° 244° (WSW) 07:08:33 435.950
STRAND 1 23 Nov 07:13:22 07:18:18 46° 261° (W) 07:23:16 437.568
PRISM 23 Nov 07:18:03 07:19:59 13° 270° (W) 07:21:56 437.425
AIST 1 23 Nov 07:19:11 07:23:28 49° 77° (ENE) 07:27:41
AO-7 23 Nov 07:20:22 07:26:43 25° 310° (NW) 07:33:04 29.400- 29.500
AIST 2 23 Nov 07:20:50 07:24:53 41° 242° (WSW) 07:28:53 435.215
JAS-2 23 Nov 07:23:05 07:29:36 35° 299° (WNW) 07:35:31 435.910
PCSat 23 Nov 07:25:02 07:28:47 19° 254° (WSW) 07:32:30 145.827
GONETS M04 23 Nov 07:30:32 07:36:13 20° 76° (ENE) 07:41:55
O/OREOS (USA 219) 23 Nov 07:43:04 07:47:30 58° 297° (WNW) 07:51:56 437.305
Cubesat XI-IV 23 Nov 07:50:03 07:55:10 48° 291° (WNW) 08:00:15 437.490
CUBESAT XI-V 23 Nov 08:03:00 08:05:47 15° 271° (W) 08:08:35 437.345
SO-50 23 Nov 08:04:49 08:05:47 11° 338° (NNW) 08:06:46 436.795
ISS 23 Nov 08:29:20 08:31:26 16° 226° (SW) 08:33:33 145.825
CUTE-I 23 Nov 08:33:09 08:37:14 23° 299° (WNW) 08:41:18 437.470
SEEDS 23 Nov 08:40:00 08:42:07 13° 90° (E) 08:44:14 437.485
AIST 1 23 Nov 08:58:00 09:00:42 16° 275° (W) 09:03:23
UNISAT 6 23 Nov 09:00:14 09:01:18 11° 59° (ENE) 09:02:23 437.425
CANX-2 23 Nov 09:02:16 09:06:00 29° 95° (E) 09:09:44 2200.000
AAUSAT CUBESAT 2 23 Nov 09:02:41 09:05:34 18° 92° (E) 09:08:26 437.432
DOVE 4 23 Nov 09:05:57 09:08:15 14° 91° (E) 09:10:35 437.250
COMPASS 1 23 Nov 09:15:11 09:18:48 27° 95° (E) 09:22:25 437.405
NANOSAT C BR1 23 Nov 09:15:50 09:17:07 11° 59° (ENE) 09:18:24 145.865
HO-68 23 Nov 09:17:05 09:23:58 46° 99° (E) 09:30:47 435.675
GONETS M04 23 Nov 09:22:54 09:31:42 88° 97° (E) 09:40:37
QB50P1 23 Nov 09:24:17 09:26:28 14° 61° (ENE) 09:28:38 145.935-145.965
DELFI C3 23 Nov 09:24:35 09:26:31 13° 90° (E) 09:28:26 145.870
ANTELSAT 23 Nov 09:26:18 09:29:23 20° 64° (ENE) 09:32:29 437.575/2403.000
GOMX 1 23 Nov 09:32:19 09:36:10 36° 97° (E) 09:40:02 467.674
CUTE 1.7 & AOD 2 23 Nov 09:37:01 09:41:16 62° 101° (E) 09:45:31 437.475
BRITE-PL 23 Nov 09:44:51 09:49:01 70° 102° (ESE) 09:53:09 437.365/2234.400
POPSAT HIP 1 23 Nov 09:47:16 09:50:37 23° 65° (ENE) 09:53:58 437.405
FUNcube-1 23 Nov 09:49:13 09:51:00 12° 90° (E) 09:52:47 145.935
UKube-1 23 Nov 09:50:05 09:53:41 25° 95° (E) 09:57:15 .
BUGSAT 1 23 Nov 09:50:14 09:53:26 21° 65° (ENE) 09:56:37 437.445
CUBEBUG 2 23 Nov 09:59:22 10:02:39 22° 94° (E) 10:05:57 437.445
Oscar 11 23 Nov 10:03:24 10:07:30 40° 98° (E) 10:11:36 145.826/435.025
CINEMA 3 23 Nov 10:03:52 10:07:46 37° 98° (E) 10:11:44 145.822/145.860
UWE-3 23 Nov 10:06:08 10:09:28 22° 94° (E) 10:12:49 435.000/436.395/437.385
SEEDS 23 Nov 10:14:09 10:18:21 60° 286° (WNW) 10:22:34 437.485
POLYITAN 1 23 Nov 10:18:00 10:22:05 46° 71° (ENE) 10:26:11 437.675
QB50P2 23 Nov 10:21:15 10:25:23 50° 72° (ENE) 10:29:31 145.880/145.840
TIGRISAT 23 Nov 10:21:19 10:25:33 70° 74° (ENE) 10:29:48 435.000
DX 1 23 Nov 10:22:02 10:26:19 55° 101° (E) 10:30:34 434.975-435.025
DUCHIFAT 1 23 Nov 10:29:17 10:33:29 61° 73° (ENE) 10:37:41 145.980
UNISAT 6 23 Nov 10:33:10 10:37:27 86° 257° (WSW) 10:41:45 437.425
AAUSAT CUBESAT 2 23 Nov 10:37:27 10:41:29 44° 289° (WNW) 10:45:30 437.432
CANX-2 23 Nov 10:38:13 10:41:54 28° 292° (WNW) 10:45:34 2200.000
VELOX 1 23 Nov 10:38:29 10:42:16 27° 95° (E) 10:46:00 145.980
DOVE 4 23 Nov 10:42:21 10:46:23 51° 287° (WNW) 10:50:28 437.250
ZACube-1 23 Nov 10:47:40 10:51:47 52° 100° (E) 10:55:57 437.345
NANOSAT C BR1 23 Nov 10:48:06 10:52:22 84° 257° (WSW) 10:56:39 145.865
COMPASS 1 23 Nov 10:50:50 10:54:32 30° 292° (WNW) 10:58:13 437.405
HUMSAT D 23 Nov 10:54:15 10:58:08 37° 98° (E) 11:02:02 437.325/437.525
QB50P1 23 Nov 10:57:36 11:01:51 67° 258° (WSW) 11:06:07 145.935-145.965
DELFI C3 23 Nov 10:58:08 11:02:13 59° 286° (WNW) 11:06:17 145.870
ANTELSAT 23 Nov 11:01:52 11:05:56 42° 261° (W) 11:10:01 437.575/2403.000
AISAT 23 Nov 11:02:27 11:06:45 48° 100° (E) 11:11:01 437.250
50 SAT 23 Nov 11:03:41 11:07:30 39° 98° (E) 11:11:20 437.505
HO-68 23 Nov 11:05:02 11:11:34 39° 298° (WNW) 11:18:04 435.675
GOMX 1 23 Nov 11:11:01 11:14:08 21° 295° (WNW) 11:17:15 467.674
CUTE 1.7 & AOD 2 23 Nov 11:14:22 11:16:44 15° 298° (WNW) 11:19:06 437.475
POPSAT HIP 1 23 Nov 11:22:24 11:26:21 36° 262° (W) 11:30:18 437.405
GONETS M04 23 Nov 11:23:12 11:29:48 23° 300° (WNW) 11:36:28
FUNcube-1 23 Nov 11:23:37 11:27:47 64° 286° (WNW) 11:32:00 145.935
BUGSAT 1 23 Nov 11:24:40 11:28:42 40° 262° (W) 11:32:43 437.445
BRITE-PL 23 Nov 11:25:25 11:27:00 12° 300° (WNW) 11:28:35 437.365/2234.400
UKube-1 23 Nov 11:25:59 11:29:54 33° 292° (WNW) 11:33:47 .
CUBEBUG 1 23 Nov 11:27:05 11:31:02 32° 96° (E) 11:34:56 437.445
SO-50 23 Nov 11:28:58 11:31:33 14° 29° (NNE) 11:34:10 436.795
CUBEBUG 2 23 Nov 11:35:37 11:39:28 36° 290° (WNW) 11:43:22 437.445
Oscar 11 23 Nov 11:40:08 11:43:27 22° 295° (WNW) 11:46:45 145.826/435.025
CINEMA 3 23 Nov 11:41:38 11:44:49 21° 294° (WNW) 11:48:02 145.822/145.860
UWE-3 23 Nov 11:42:17 11:46:07 35° 290° (WNW) 11:49:59 435.000/436.395/437.385
POLYITAN 1 23 Nov 11:55:28 11:58:18 17° 268° (W) 12:01:09 437.675
QB50P2 23 Nov 11:58:58 12:01:37 16° 269° (W) 12:04:16 145.880/145.840
DX 1 23 Nov 11:59:22 12:02:09 17° 298° (WNW) 12:04:55 434.975-435.025
TIGRISAT 23 Nov 12:01:26 12:02:49 11° 271° (W) 12:04:12 435.000
ESTCUBE 1 23 Nov 12:02:10 12:06:45 78° 103° (ESE) 12:11:16 437.505/2401.250
DUCHIFAT 1 23 Nov 12:07:40 12:09:45 13° 270° (W) 12:11:51 145.980
